sat.trackr.live / text

‹ back to catalog

STARLINK-3552

NORAD 51813 · 2022-017AX

PAYLOAD ACTIVE UNKNOWN

§ Identity

Operator
Country
US
Launch date
2022-02-25
Launch site
AFWTR
Launch vehicle
Mass (kg)
RCS (m²)

Purposes: comms

External: N2YO · Heavens-Above · Gunter

§ Orbital elements

Epoch: 2026-05-24T20:38:59.624448Z

Period
95.44 min
Inclination
53.2136°
Eccentricity
0.0001257
Mean motion
15.08835851 rev/d
Perigee alt
538.9 km
Apogee alt
540.6 km
Semi-major
6,917.9 km
B*
4.3878e-5
RAAN
347.2065°
Arg perigee
89.6989°
Mean anomaly
270.4148°
Rev number
23,558

§ Raw data

STARLINK-35521 51813U 22017AX  26144.86041232  .00000410  00000+0  43878-4 0  99912 51813  53.2136 347.2065 0001257  89.6989 270.4148 15.08835851235584

JSON: /api/v1/satellites/51813 · /tle

For live sub-satellite position, see the globe view (requires WebGL).

§ Visibility from observer

Set your observer location to see the next 7 days of passes ≥ 10°. The values pass through the URL so the page stays shareable.

No JS? Fill the form by hand. The geolocation button needs JavaScript.